Location: Highland Meadows Observing Site
(48.4428°N, 114.5461°W)
Time: 06:13:42
(UTC-07:00)

Amateur Radio Satellites - All Passes

Search period start: 01 February 2015 05:43
Search period end: 02 February 2015 05:43
Location: Highland Meadows Observing Site, 48.4428°N, 114.5461°W

Satellite Date Start Highest point End Downlink Frequencies (MHz)
Time Altitude Azimuth
Gurwin Techsat 1B 01 Feb 05:43:56 05:45:25 11° 309° (NW) 05:46:40 435.225
STRAND 1 01 Feb 05:45:32 05:50:06 36° 66° (ENE) 05:54:47 437.568
CUBESAT XI-V 01 Feb 05:59:12 06:03:42 56° 71° (ENE) 06:08:15 437.345
JAS-2 01 Feb 06:01:59 06:07:36 70° 288° (WNW) 06:13:56 435.910
AIST 2 01 Feb 06:11:39 06:12:58 11° 344° (NNW) 06:14:13 435.215
PRISM 01 Feb 06:17:26 06:21:31 66° 257° (WSW) 06:25:38 437.425
DANDE 01 Feb 06:23:05 06:30:37 31° 300° (WNW) 06:37:45 436.750
YUBILEINY 01 Feb 06:25:27 06:34:07 60° 74° (ENE) 06:42:49 435.215
CUSAT 1 01 Feb 06:36:20 06:42:54 23° 304° (NW) 06:48:54 437.405
PCSat 01 Feb 06:46:08 06:50:15 21° 329° (NNW) 06:54:18 145.827
Cubesat XI-IV 01 Feb 06:53:21 06:58:41 58° 101° (E) 07:04:00 437.490
AO-7 01 Feb 06:57:06 07:04:23 34° 307° (NW) 07:11:30 29.400- 29.500
RS-15 01 Feb 07:02:39 07:13:24 58° 322° (NW) 07:24:23 29.354- 29.394
CUTE-I 01 Feb 07:12:21 07:17:46 81° 104° (ESE) 07:23:10 437.470
STRAND 1 01 Feb 07:24:39 07:29:20 36° 264° (W) 07:34:02 437.568
CUBESAT XI-V 01 Feb 07:38:14 07:41:34 19° 271° (W) 07:44:48 437.345
BEESAT 2 01 Feb 07:40:22 07:40:52 10° 14° (NNE) 07:41:25 435.950
JAS-2 01 Feb 07:49:08 07:52:02 14° 305° (NW) 07:54:48 435.910
BEESAT 3 01 Feb 07:50:32 07:51:53 11° 18° (NNE) 07:53:18 437.485
BRITE-PL 01 Feb 08:06:35 08:10:23 19° 85° (E) 08:14:16 437.365/2234.400
PHONESAT 2.4 01 Feb 08:21:35 08:22:39 11° 156° (SSE) 08:23:47 2401.200-2431.200
YUBILEINY 01 Feb 08:22:49 08:30:38 36° 275° (W) 08:38:18 435.215
Cubesat XI-IV 01 Feb 08:34:06 08:38:28 25° 299° (WNW) 08:42:44 437.490
PCSat 01 Feb 08:34:33 08:35:52 11° 354° (N) 08:37:09 145.827
SEEDS 01 Feb 08:37:52 08:40:21 16° 88° (E) 08:42:58 437.485
VERMONT LUNAR 01 Feb 08:39:11 08:41:29 17° 165° (SSE) 08:43:47 437.305
UNISAT 6 01 Feb 08:51:50 08:54:28 15° 59° (ENE) 08:57:14 437.425
AO-7 01 Feb 08:52:15 08:54:45 11° 332° (NNW) 08:56:57 29.400- 29.500
CUTE-I 01 Feb 08:53:33 08:57:17 19° 303° (WNW) 09:00:52 437.470
COMPASS 1 01 Feb 08:59:02 09:02:13 21° 92° (E) 09:05:28 437.405
NANOSAT C BR1 01 Feb 09:05:26 09:06:44 11° 57° (ENE) 09:08:12 145.865
HO-68 01 Feb 09:07:48 09:14:36 44° 98° (E) 09:21:25 435.675
SO-50 01 Feb 09:16:20 09:19:11 17° 112° (ESE) 09:22:16 436.795
BEESAT 2 01 Feb 09:16:52 09:20:28 27° 37° (NE) 09:24:05 435.950
DOVE 4 01 Feb 09:18:37 09:23:25 37° 94° (E) 09:28:02 437.250
RS-15 01 Feb 09:18:48 09:28:37 35° 354° (N) 09:38:43 29.354- 29.394
QB50P2 01 Feb 09:20:20 09:22:53 16° 60° (ENE) 09:25:35 145.880/145.840
GOMX 1 01 Feb 09:22:05 09:27:25 54° 98° (E) 09:32:29 467.674
AAUSAT CUBESAT 2 01 Feb 09:22:21 09:26:05 32° 95° (E) 09:29:50 437.432
CANX-2 01 Feb 09:22:55 09:27:06 55° 100° (E) 09:31:14 2200.000
BUGSAT 1 01 Feb 09:23:11 09:24:57 13° 58° (ENE) 09:26:54 437.445
ANTELSAT 01 Feb 09:26:26 09:30:27 29° 66° (ENE) 09:34:31 437.575/2403.000
BEESAT 3 01 Feb 09:27:25 09:31:15 34° 41° (NE) 09:35:04 437.485
QB50P1 01 Feb 09:28:03 09:30:56 18° 62° (ENE) 09:33:57 145.935-145.965
DX 1 01 Feb 09:28:13 09:29:39 12° 86° (E) 09:31:19 434.975-435.025
AIST 2 01 Feb 09:30:28 09:33:46 21° 32° (NNE) 09:37:04 435.215
CUBEBUG 2 01 Feb 09:31:09 09:33:57 16° 87° (E) 09:36:51 437.445
TIGRISAT 01 Feb 09:32:00 09:36:08 32° 67° (ENE) 09:40:17 435.000
FUNcube-1 01 Feb 09:35:28 09:37:07 12° 85° (E) 09:38:58 145.935
BRITE-PL 01 Feb 09:43:54 09:49:37 76° 287° (WNW) 09:55:04 437.365/2234.400
POLYITAN 1 01 Feb 09:44:23 09:47:56 26° 65° (ENE) 09:51:33 437.675
CUTE 1.7 + AOD 2 01 Feb 09:46:33 09:50:49 89° 100° (E) 09:55:02 437.475
PHONESAT 2.4 01 Feb 09:57:38 10:00:27 22° 172° (S) 10:03:18 2401.200-2431.200
Oscar 11 01 Feb 10:00:05 10:04:09 40° 97° (E) 10:08:13 145.826/435.025
POPSAT HIP 1 01 Feb 10:02:04 10:06:00 36° 68° (ENE) 10:10:00 437.405
DUCHIFAT 1 01 Feb 10:02:40 10:06:35 36° 68° (ENE) 10:10:34 145.980
UWE-3 01 Feb 10:03:15 10:07:05 28° 93° (E) 10:10:53 435.000/436.395/437.385
AISAT 01 Feb 10:08:32 10:10:28 13° 86° (E) 10:12:36 437.250
SEEDS 01 Feb 10:12:29 10:16:37 58° 288° (WNW) 10:20:43 437.485
VERMONT LUNAR 01 Feb 10:16:10 10:18:56 22° 182° (S) 10:21:42 437.305
CINEMA 3 01 Feb 10:17:30 10:22:23 74° 103° (ESE) 10:27:00 145.822/145.860
PCSat 01 Feb 10:18:52 10:21:45 14° 20° (NNE) 10:24:43 145.827
UNISAT 6 01 Feb 10:25:59 10:30:43 83° 258° (WSW) 10:35:25 437.425
GONETS M04 01 Feb 10:32:51 10:38:42 20° 52° (NE) 10:44:52
DELFI C3 01 Feb 10:33:12 10:37:16 73° 102° (ESE) 10:41:18 145.870
VELOX 1 01 Feb 10:33:49 10:37:16 22° 92° (E) 10:40:48 145.980
COMPASS 1 01 Feb 10:34:12 10:38:09 41° 290° (WNW) 10:42:03 437.405
HUMSAT D 01 Feb 10:35:21 10:38:57 27° 93° (E) 10:42:33 437.325/437.525
UKube-1 01 Feb 10:37:15 10:41:32 52° 100° (E) 10:45:49 .
NANOSAT C BR1 01 Feb 10:37:40 10:41:57 81° 73° (ENE) 10:46:17 145.865
QB50P2 01 Feb 10:54:04 10:58:21 68° 258° (WSW) 11:02:41 145.880/145.840
SO-50 01 Feb 10:54:35 10:59:12 78° 310° (NW) 11:04:00 436.795
BEESAT 2 01 Feb 10:54:51 10:58:56 50° 238° (WSW) 11:02:56 435.950
HO-68 01 Feb 10:55:40 11:02:24 45° 298° (WNW) 11:09:04 435.675
BUGSAT 1 01 Feb 10:55:44 10:59:53 84° 256° (WSW) 11:04:07 437.445
DOVE 4 01 Feb 10:56:27 11:01:09 34° 294° (WNW) 11:05:36 437.250
AAUSAT CUBESAT 2 01 Feb 10:58:08 11:01:42 28° 294° (WNW) 11:05:13 437.432
ZACube-1 01 Feb 10:58:57 11:03:25 82° 103° (ESE) 11:07:44 437.345
CANX-2 01 Feb 10:59:47 11:02:42 18° 298° (WNW) 11:05:30 2200.000
GOMX 1 01 Feb 11:00:43 11:05:13 26° 298° (WNW) 11:09:28 467.674
DX 1 01 Feb 11:02:11 11:06:37 85° 288° (WNW) 11:11:02 434.975-435.025
QB50P1 01 Feb 11:02:14 11:06:28 57° 259° (W) 11:10:44 145.935-145.965
ANTELSAT 01 Feb 11:02:45 11:07:10 38° 263° (W) 11:11:32 437.575/2403.000
BEESAT 3 01 Feb 11:05:35 11:09:25 36° 241° (WSW) 11:13:11 437.485
CUBEBUG 2 01 Feb 11:06:39 11:11:12 62° 288° (WNW) 11:15:33 437.445
TIGRISAT 01 Feb 11:08:32 11:12:52 35° 264° (W) 11:17:08 435.000
AIST 2 01 Feb 11:08:36 11:12:56 82° 233° (SW) 11:17:10 435.215
FUNcube-1 01 Feb 11:09:45 11:14:12 80° 285° (WNW) 11:18:30 145.935
50 SAT 01 Feb 11:14:48 11:18:46 50° 99° (E) 11:22:40 437.505
POLYITAN 1 01 Feb 11:19:42 11:23:45 38° 263° (W) 11:27:49 437.675
BRITE-PL 01 Feb 11:23:56 11:27:16 16° 305° (NW) 11:30:20 437.365/2234.400
CUTE 1.7 + AOD 2 01 Feb 11:24:24 11:26:09 12° 301° (WNW) 11:27:45 437.475
RS-15 01 Feb 11:33:51 11:44:25 45° 27° (NNE) 11:55:29 29.354- 29.394
AIST 1 01 Feb 11:35:18 11:39:33 79° 98° (E) 11:43:52
PHONESAT 2.4 01 Feb 11:35:37 11:38:24 21° 189° (S) 11:41:11 2401.200-2431.200
Oscar 11 01 Feb 11:36:39 11:40:11 24° 295° (WNW) 11:43:37 145.826/435.025
POPSAT HIP 1 01 Feb 11:38:22 11:42:02 26° 267° (W) 11:45:39 437.405
DUCHIFAT 1 01 Feb 11:38:56 11:42:33 26° 267° (W) 11:46:10 145.980
UWE-3 01 Feb 11:39:37 11:43:45 35° 292° (WNW) 11:47:43 435.000/436.395/437.385
SPROUT 01 Feb 11:40:34 11:42:13 12° 86° (E) 11:44:05 437.525
AISAT 01 Feb 11:43:13 11:47:47 81° 286° (WNW) 11:52:17 437.250
VERMONT LUNAR 01 Feb 11:54:21 11:56:21 14° 198° (SSW) 11:58:21 437.305
CINEMA 3 01 Feb 11:55:50 11:59:02 17° 301° (WNW) 12:02:01 145.822/145.860
ESTCUBE 1 01 Feb 11:57:10 12:01:43 67° 101° (ESE) 12:06:14 437.505/2401.250
PCSat 01 Feb 12:01:36 12:06:44 40° 45° (NE) 12:11:51 145.827
TISAT 1 01 Feb 12:04:26 12:07:35 20° 91° (E) 12:10:49 437.305
Oscar 19 01 Feb 12:05:32 12:09:49 27° 63° (ENE) 12:14:12 437.125/150
UNISAT 6 01 Feb 12:06:59 12:08:20 11° 276° (W) 12:09:26 437.425
CUBEBUG 1 01 Feb 12:07:14 12:11:43 79° 102° (ESE) 12:16:11 437.445
VELOX 1 01 Feb 12:09:47 12:14:08 47° 290° (WNW) 12:18:25 145.980
DELFI C3 01 Feb 12:09:57 12:12:01 13° 300° (WNW) 12:13:57 145.870
HUMSAT D 01 Feb 12:10:58 12:14:49 33° 292° (WNW) 12:18:34 437.325/437.525
UKube-1 01 Feb 12:14:09 12:17:24 20° 298° (WNW) 12:20:32 .
NANOSAT C BR1 01 Feb 12:16:49 12:18:30 12° 274° (W) 12:19:58 145.865
GONETS M04 01 Feb 12:28:41 12:37:25 75° 77° (ENE) 12:46:08
AO-7 01 Feb 12:29:30 12:32:11 12° 30° (NNE) 12:35:10 29.400- 29.500
ITAMSAT 1 01 Feb 12:30:30 12:33:57 19° 58° (ENE) 12:37:33 435.822/435.867
ZACube-1 01 Feb 12:36:51 12:39:13 14° 302° (WNW) 12:41:24 437.345
SO-50 01 Feb 12:36:58 12:40:33 21° 333° (NNW) 12:44:10 436.795
DX 1 01 Feb 12:40:20 12:42:15 12° 303° (WNW) 12:44:00 434.975-435.025
HO-68 01 Feb 12:45:46 12:48:30 12° 320° (NW) 12:50:56 435.675
FUNcube-1 01 Feb 12:48:18 12:49:50 11° 303° (WNW) 12:51:11 145.935
AIST 2 01 Feb 12:49:32 12:50:54 11° 250° (WSW) 12:52:01 435.215
50 SAT 01 Feb 12:50:45 12:53:34 18° 297° (WNW) 12:56:15 437.505
ITUPSAT 1 01 Feb 12:52:39 12:53:51 11° 84° (E) 12:55:21 437.325
SPROUT 01 Feb 13:14:36 13:18:59 80° 285° (WNW) 13:23:19 437.525
AIST 1 01 Feb 13:16:00 13:17:56 12° 299° (WNW) 13:19:42
AISAT 01 Feb 13:21:50 13:23:44 12° 304° (WNW) 13:25:28 437.250
ESTCUBE 1 01 Feb 13:35:08 13:38:10 17° 300° (WNW) 13:41:05 437.505/2401.250
DANDE 01 Feb 13:37:13 13:41:23 17° 49° (NE) 13:45:07 436.750
TISAT 1 01 Feb 13:39:33 13:43:42 47° 290° (WNW) 13:47:48 437.305
Oscar 19 01 Feb 13:43:55 13:48:58 50° 261° (W) 13:54:01 437.125/150
CUBEBUG 1 01 Feb 13:45:01 13:47:35 15° 301° (WNW) 13:50:01 437.445
PCSat 01 Feb 13:45:07 13:50:12 41° 245° (WSW) 13:55:15 145.827
Gurwin Techsat 1B 01 Feb 13:46:25 13:51:32 51° 69° (ENE) 13:56:42 435.225
RS-15 01 Feb 13:46:45 13:58:05 83° 234° (SW) 14:09:55 29.354- 29.394
CUSAT 1 01 Feb 13:47:08 13:51:38 20° 53° (NE) 13:55:28 437.405
SWISSCUBE 01 Feb 14:06:33 14:11:18 58° 101° (E) 14:16:02 437.505
ITAMSAT 1 01 Feb 14:07:44 14:12:55 78° 256° (WSW) 14:18:10 435.822/435.867
AO-7 01 Feb 14:15:21 14:22:39 36° 54° (NE) 14:30:06 29.400- 29.500
SO-50 01 Feb 14:21:06 14:22:55 12° 357° (N) 14:24:44 436.795
BEESAT 01 Feb 14:21:37 14:26:26 75° 103° (ESE) 14:31:13 436.000
GONETS M04 01 Feb 14:26:30 14:33:33 28° 279° (W) 14:40:20
ITUPSAT 1 01 Feb 14:27:49 14:32:39 83° 105° (ESE) 14:37:27 437.325
HORYU 2 01 Feb 14:37:17 14:41:35 47° 70° (ENE) 14:45:55 437.375
JAS-2 01 Feb 14:37:20 14:39:35 13° 54° (NE) 14:42:01 435.910
SPROUT 01 Feb 14:52:55 14:54:25 11° 303° (WNW) 14:55:43 437.525
STARS 01 Feb 15:06:11 15:10:09 31° 95° (E) 15:14:08 437.465
DANDE 01 Feb 15:19:42 15:26:27 84° 76° (ENE) 15:31:22 436.750
KKS-1 01 Feb 15:20:31 15:25:00 64° 102° (ESE) 15:29:27 437.445
Gurwin Techsat 1B 01 Feb 15:27:24 15:31:50 26° 268° (W) 15:36:12 435.225
CUSAT 1 01 Feb 15:29:32 15:35:43 70° 262° (W) 15:40:13 437.405
SWISSCUBE 01 Feb 15:45:12 15:48:50 21° 299° (WNW) 15:52:21 437.505
ITAMSAT 1 01 Feb 15:51:35 15:53:27 11° 277° (W) 15:55:00 435.822/435.867
RS-15 01 Feb 16:00:20 16:09:07 26° 257° (WSW) 16:17:42 29.354- 29.394
BEESAT 01 Feb 16:00:38 16:03:47 17° 301° (WNW) 16:06:49 436.000
SO-50 01 Feb 16:02:18 16:05:25 17° 21° (NNE) 16:08:37 436.795
O/OREOS (USA 219) 01 Feb 16:02:58 16:07:20 52° 110° (ESE) 16:11:47 437.305
AO-7 01 Feb 16:06:43 16:15:03 68° 255° (WSW) 16:23:25 29.400- 29.500
ITUPSAT 1 01 Feb 16:07:03 16:10:00 16° 302° (WNW) 16:12:47 437.325
M-CUBED/EXP-1 PRIME 01 Feb 16:14:07 16:17:19 42° 105° (ESE) 16:20:36 437.505
HORYU 2 01 Feb 16:15:02 16:18:32 21° 268° (W) 16:21:58 437.375
JAS-2 01 Feb 16:18:40 16:23:58 78° 74° (ENE) 16:29:11 435.910
Cubesat XI-IV 01 Feb 16:40:56 16:45:00 23° 60° (ENE) 16:49:12 437.490
STARS 01 Feb 16:42:40 16:46:38 32° 294° (WNW) 16:50:33 437.465
AUBIESAT-1 01 Feb 16:44:05 16:47:25 89° 299° (WNW) 16:50:53 437.475
KKS-1 01 Feb 16:58:09 17:01:14 18° 299° (WNW) 17:04:12 437.445
CUTE-I 01 Feb 16:59:08 17:03:44 31° 63° (ENE) 17:08:26 437.470
DANDE 01 Feb 17:04:53 17:08:37 16° 283° (WNW) 17:11:38 436.750
MOZHAYETS 4 01 Feb 17:26:08 17:30:41 59° 101° (E) 17:35:12
YUBILEINY 01 Feb 17:41:18 17:44:12 12° 71° (ENE) 17:47:42 435.215
SO-50 01 Feb 17:42:20 17:47:06 49° 43° (NE) 17:51:56 436.795
O/OREOS (USA 219) 01 Feb 17:43:24 17:47:05 23° 311° (NW) 17:50:45 437.305
M-CUBED/EXP-1 PRIME 01 Feb 17:50:01 17:52:07 16° 302° (WNW) 17:54:09 437.505
CUBESAT XI-V 01 Feb 17:54:36 17:55:46 11° 84° (E) 17:57:13 437.345
HO-68 01 Feb 17:57:43 18:00:43 13° 42° (NE) 18:04:01 435.675
PRISM 01 Feb 17:58:04 18:00:03 13° 88° (E) 18:02:12 437.425
AO-7 01 Feb 18:05:03 18:09:43 15° 278° (W) 18:13:52 29.400- 29.500
JAS-2 01 Feb 18:06:48 18:09:55 15° 273° (W) 18:12:45 435.910
Cubesat XI-IV 01 Feb 18:19:27 18:24:43 63° 258° (WSW) 18:30:04 437.490
CUTE-I 01 Feb 18:38:36 18:43:42 44° 262° (W) 18:48:49 437.470
DOVE 4 01 Feb 18:54:24 18:55:32 11° 52° (NE) 18:56:56 437.250
GOMX 1 01 Feb 18:58:07 19:01:07 16° 56° (NE) 19:04:22 467.674
MOZHAYETS 4 01 Feb 19:04:15 19:07:33 19° 298° (WNW) 19:10:44
CUTE 1.7 + AOD 2 01 Feb 19:09:46 19:11:51 14° 60° (ENE) 19:14:05 437.475
BRITE-PL 01 Feb 19:20:28 19:25:00 30° 63° (ENE) 19:29:50 437.365/2234.400
SO-50 01 Feb 19:23:11 19:27:33 31° 243° (WSW) 19:31:51 436.795
CUBESAT XI-V 01 Feb 19:29:21 19:34:05 84° 105° (ESE) 19:38:49 437.345
STRAND 1 01 Feb 19:30:42 19:35:48 58° 100° (E) 19:40:54 437.568
YUBILEINY 01 Feb 19:30:50 19:39:16 59° 92° (E) 19:47:47 435.215
PRISM 01 Feb 19:31:57 19:36:06 68° 287° (WNW) 19:40:14 437.425
SEEDS 01 Feb 19:33:53 19:36:53 19° 63° (ENE) 19:39:59 437.485
HO-68 01 Feb 19:40:10 19:46:57 50° 63° (ENE) 19:53:48 435.675
CINEMA 3 01 Feb 19:47:32 19:50:41 17° 59° (ENE) 19:54:00 145.822/145.860
COMPASS 1 01 Feb 19:54:17 19:57:43 25° 66° (ENE) 20:01:13 437.405
UKube-1 01 Feb 20:03:45 20:04:38 11° 56° (NE) 20:05:44 .
AAUSAT CUBESAT 2 01 Feb 20:17:05 20:20:55 36° 69° (ENE) 20:24:48 437.432
CANX-2 01 Feb 20:19:26 20:23:41 65° 74° (ENE) 20:27:56 2200.000
ZACube-1 01 Feb 20:24:26 20:27:01 15° 60° (ENE) 20:29:45 437.345
DX 1 01 Feb 20:26:59 20:29:54 18° 61° (ENE) 20:32:56 434.975-435.025
DOVE 4 01 Feb 20:27:12 20:32:16 56° 71° (ENE) 20:37:30 437.250
CUBEBUG 2 01 Feb 20:32:39 20:36:27 25° 64° (ENE) 20:40:20 437.445
GOMX 1 01 Feb 20:33:11 20:38:26 81° 75° (ENE) 20:43:58 467.674
FUNcube-1 01 Feb 20:34:28 20:37:32 18° 61° (ENE) 20:40:43 145.935
ISS 01 Feb 20:39:35 20:41:35 15° 138° (SE) 20:43:38 145.825
CUTE 1.7 + AOD 2 01 Feb 20:42:58 20:47:16 80° 257° (WSW) 20:51:34 437.475
BRITE-PL 01 Feb 20:58:10 21:03:16 49° 263° (W) 21:08:42 437.365/2234.400
Oscar 11 01 Feb 20:58:22 21:02:34 50° 71° (ENE) 21:06:48 145.826/435.025
UWE-3 01 Feb 21:03:42 21:08:02 38° 68° (ENE) 21:12:23 435.000/436.395/437.385
CUBESAT XI-V 01 Feb 21:08:15 21:10:58 15° 301° (WNW) 21:13:32 437.345
SEEDS 01 Feb 21:08:16 21:12:26 51° 261° (W) 21:16:35 437.485
AISAT 01 Feb 21:09:55 21:13:05 20° 62° (ENE) 21:16:24 437.250
STRAND 1 01 Feb 21:10:35 21:14:40 24° 299° (WNW) 21:18:39 437.568
CINEMA 3 01 Feb 21:22:18 21:27:19 82° 257° (WSW) 21:32:25 145.822/145.860
DELFI C3 01 Feb 21:24:53 21:28:56 76° 75° (ENE) 21:33:02 145.870
ESTCUBE 1 01 Feb 21:26:29 21:28:43 14° 58° (ENE) 21:31:07 437.505/2401.250
HO-68 01 Feb 21:28:13 21:34:53 40° 264° (W) 21:41:30 435.675
YUBILEINY 01 Feb 21:28:39 21:36:37 37° 295° (WNW) 21:44:32 435.215
COMPASS 1 01 Feb 21:29:24 21:33:20 36° 264° (W) 21:37:14 437.405
HUMSAT D 01 Feb 21:30:56 21:34:48 33° 68° (ENE) 21:38:43 437.325/437.525
CUBEBUG 1 01 Feb 21:33:18 21:35:36 14° 59° (ENE) 21:38:04 437.445
VELOX 1 01 Feb 21:35:10 21:39:05 31° 66° (ENE) 21:43:04 145.980
UKube-1 01 Feb 21:35:46 21:40:06 74° 73° (ENE) 21:44:28 .
AIST 1 01 Feb 21:38:51 21:42:40 29° 71° (ENE) 21:46:33
AAUSAT CUBESAT 2 01 Feb 21:53:14 21:56:43 24° 267° (W) 22:00:09 437.432
CANX-2 01 Feb 21:57:40 22:00:08 15° 272° (W) 22:02:27 2200.000
ZACube-1 01 Feb 21:58:13 22:02:51 81° 257° (WSW) 22:07:30 437.345
DX 1 01 Feb 22:01:27 22:05:46 60° 259° (WSW) 22:10:08 434.975-435.025
50 SAT 01 Feb 22:05:34 22:09:36 53° 72° (ENE) 22:13:39 437.505
DOVE 4 01 Feb 22:06:12 22:10:25 24° 271° (W) 22:14:37 437.250
CUBEBUG 2 01 Feb 22:08:15 22:12:54 49° 261° (W) 22:17:34 437.445
FUNcube-1 01 Feb 22:08:53 22:13:28 65° 260° (W) 22:18:04 145.935
GOMX 1 01 Feb 22:13:54 22:17:21 17° 276° (W) 22:20:40 467.674
ISS 01 Feb 22:14:22 22:17:38 75° 156° (SSE) 22:20:56 145.825
UNISAT 6 01 Feb 22:15:53 22:18:31 16° 88° (E) 22:21:17 437.425
NANOSAT C BR1 01 Feb 22:22:03 22:22:43 10° 85° (E) 22:23:40 145.865
Oscar 11 01 Feb 22:35:55 22:39:06 19° 270° (W) 22:42:09 145.826/435.025
BUGSAT 1 01 Feb 22:36:33 22:38:02 12° 86° (E) 22:39:45 437.445
QB50P2 01 Feb 22:37:09 22:39:43 16° 88° (E) 22:42:26 145.880/145.840
SPROUT 01 Feb 22:38:17 22:41:00 17° 61° (ENE) 22:43:50 437.525
UWE-3 01 Feb 22:40:33 22:44:40 29° 267° (W) 22:48:45 435.000/436.395/437.385
QB50P1 01 Feb 22:44:44 22:47:43 18° 90° (E) 22:50:47 145.935-145.965
AISAT 01 Feb 22:44:59 22:49:23 56° 259° (W) 22:53:50 437.250
ANTELSAT 01 Feb 22:51:15 22:55:18 34° 95° (E) 22:59:17 437.575/2403.000
TIGRISAT 01 Feb 22:56:32 23:00:41 37° 97° (E) 23:04:44 435.000
ESTCUBE 1 01 Feb 23:00:31 23:05:01 86° 256° (WSW) 23:09:33 437.505/2401.250
TISAT 1 01 Feb 23:00:34 23:04:03 25° 65° (ENE) 23:07:37 437.305
POLYITAN 1 01 Feb 23:01:47 23:05:29 27° 94° (E) 23:09:11 437.675
DELFI C3 01 Feb 23:03:20 23:04:48 11° 274° (W) 23:06:03 145.870
CINEMA 3 01 Feb 23:03:21 23:05:26 12° 277° (W) 23:07:13 145.822/145.860
HUMSAT D 01 Feb 23:06:47 23:10:38 29° 266° (W) 23:14:26 437.325/437.525
CUBEBUG 1 01 Feb 23:07:05 23:11:27 79° 256° (WSW) 23:15:53 437.445
VELOX 1 01 Feb 23:11:38 23:15:40 32° 265° (W) 23:19:41 145.980
UKube-1 01 Feb 23:14:41 23:16:52 13° 273° (W) 23:18:53 .
AIST 1 01 Feb 23:16:30 23:20:21 30° 269° (W) 23:24:10
POPSAT HIP 1 01 Feb 23:19:22 23:23:27 39° 97° (E) 23:27:30 437.405
DUCHIFAT 1 01 Feb 23:19:35 23:23:38 39° 97° (E) 23:27:41 145.980
ZACube-1 01 Feb 23:39:10 23:40:05 10° 277° (W) 23:40:44 437.345
SWISSCUBE 01 Feb 23:41:36 23:44:21 16° 58° (ENE) 23:47:17 437.505
GONETS M04 01 Feb 23:42:05 23:47:02 18° 75° (ENE) 23:52:26
50 SAT 01 Feb 23:42:20 23:45:04 17° 271° (W) 23:47:41 437.505
ISS 01 Feb 23:51:04 23:54:17 47° 355° (N) 23:57:29 145.825
UNISAT 6 01 Feb 23:51:26 23:55:51 62° 288° (WNW) 00:00:09 437.425
NANOSAT C BR1 01 Feb 23:55:01 23:59:22 90° 285° (WNW) 00:03:39 145.865
BEESAT 01 Feb 23:55:56 23:59:14 19° 60° (ENE) 00:02:40 436.000
ITUPSAT 1 02 Feb 00:02:10 00:05:41 21° 61° (ENE) 00:09:19 437.325
BUGSAT 1 02 Feb 00:09:53 00:14:12 81° 285° (WNW) 00:18:29 437.445
QB50P2 02 Feb 00:11:50 00:16:06 60° 288° (WNW) 00:20:19 145.880/145.840
SPROUT 02 Feb 00:12:22 00:16:40 65° 258° (WSW) 00:21:01 437.525
QB50P1 02 Feb 00:19:45 00:23:58 51° 289° (WNW) 00:28:07 145.935-145.965
ANTELSAT 02 Feb 00:28:12 00:32:04 29° 294° (WNW) 00:35:47 437.575/2403.000
O/OREOS (USA 219) 02 Feb 00:30:08 00:34:06 28° 51° (NE) 00:38:07 437.305
TIGRISAT 02 Feb 00:33:34 00:37:20 26° 295° (WNW) 00:40:56 435.000
TISAT 1 02 Feb 00:35:45 00:39:44 37° 263° (W) 00:43:45 437.305
POLYITAN 1 02 Feb 00:37:33 00:41:30 35° 292° (WNW) 00:45:24 437.675
ESTCUBE 1 02 Feb 00:41:48 00:42:44 10° 276° (W) 00:43:24 437.505/2401.250
KKS-1 02 Feb 00:48:35 00:50:42 14° 58° (ENE) 00:52:59 437.445
BEESAT 2 02 Feb 00:55:25 00:57:01 12° 111° (ESE) 00:58:48 435.950
POPSAT HIP 1 02 Feb 00:55:38 00:59:12 25° 295° (WNW) 01:02:39 437.405
DUCHIFAT 1 02 Feb 00:55:48 00:59:21 25° 295° (WNW) 01:02:48 145.980
BEESAT 3 02 Feb 01:04:07 01:06:44 17° 113° (ESE) 01:09:29 437.485
SWISSCUBE 02 Feb 01:16:54 01:21:40 82° 255° (WSW) 01:26:29 437.505
ISS 02 Feb 01:27:46 01:31:02 61° 14° (NNE) 01:34:20 145.825
BEESAT 02 Feb 01:31:57 01:36:41 64° 258° (WSW) 01:41:27 436.000
NANOSAT C BR1 02 Feb 01:32:44 01:34:38 12° 302° (WNW) 01:36:22 145.865
GONETS M04 02 Feb 01:33:50 01:42:32 76° 96° (E) 01:51:15
M-CUBED/EXP-1 PRIME 02 Feb 01:34:07 01:36:00 14° 57° (ENE) 01:37:56 437.505
ITUPSAT 1 02 Feb 01:38:34 01:43:15 57° 259° (W) 01:47:59 437.325
BUGSAT 1 02 Feb 01:47:34 01:49:03 11° 303° (WNW) 01:50:20 437.445
Oscar 19 02 Feb 01:51:33 01:56:28 44° 98° (E) 02:01:22 437.125/150
Gurwin Techsat 1B 02 Feb 02:00:04 02:02:59 15° 86° (E) 02:06:07 435.225
AUBIESAT-1 02 Feb 02:02:35 02:05:32 23° 61° (ENE) 02:08:24 437.475
STARS 02 Feb 02:06:44 02:10:58 45° 69° (ENE) 02:15:15 437.465
O/OREOS (USA 219) 02 Feb 02:09:20 02:13:42 42° 251° (WSW) 02:18:02 437.305
ITAMSAT 1 02 Feb 02:17:08 02:21:36 28° 93° (E) 02:26:08 435.822/435.867
KKS-1 02 Feb 02:22:14 02:26:45 90° 204° (SSW) 02:31:18 437.445
BEESAT 2 02 Feb 02:30:30 02:34:39 89° 307° (NW) 02:38:52 435.950
BEESAT 3 02 Feb 02:40:21 02:44:27 66° 311° (NW) 02:48:37 437.485
AIST 2 02 Feb 02:48:15 02:52:28 63° 124° (SE) 02:56:45 435.215
PCSat 02 Feb 02:49:48 02:52:31 14° 105° (ESE) 02:55:29 145.827
DANDE 02 Feb 02:51:56 02:57:56 23° 82° (E) 03:04:10 436.750
MOZHAYETS 4 02 Feb 02:57:45 02:59:41 13° 58° (ENE) 03:01:47
CUSAT 1 02 Feb 02:57:48 03:04:23 27° 85° (E) 03:10:58 437.405
SWISSCUBE 02 Feb 02:59:09 03:00:27 11° 276° (W) 03:01:27 437.505
ISS 02 Feb 03:04:22 03:07:26 36° 214° (SSW) 03:10:30 145.825
M-CUBED/EXP-1 PRIME 02 Feb 03:06:55 03:10:43 61° 252° (WSW) 03:14:15 437.505
Oscar 19 02 Feb 03:31:13 03:35:41 30° 297° (WNW) 03:40:04 437.125/150
GONETS M04 02 Feb 03:32:54 03:40:24 30° 300° (WNW) 03:47:42
AUBIESAT-1 02 Feb 03:36:59 03:40:25 31° 257° (WSW) 03:43:37 437.475
Gurwin Techsat 1B 02 Feb 03:38:24 03:43:46 85° 288° (WNW) 03:49:06 435.225
STARS 02 Feb 03:44:08 03:47:42 22° 268° (W) 03:51:11 437.465
ITAMSAT 1 02 Feb 03:56:20 04:01:20 46° 292° (WNW) 04:06:18 435.822/435.867
HORYU 2 02 Feb 04:01:25 04:05:49 56° 101° (E) 04:10:11 437.375
KKS-1 02 Feb 04:02:43 04:04:11 11° 275° (W) 04:05:25 437.445
AO-7 02 Feb 04:04:16 04:11:38 34° 94° (E) 04:19:04 29.400- 29.500
BEESAT 2 02 Feb 04:10:25 04:13:29 19° 329° (NNW) 04:16:30 435.950
RS-15 02 Feb 04:15:16 04:25:09 44° 112° (ESE) 04:35:19 29.354- 29.394
BEESAT 3 02 Feb 04:20:45 04:23:24 16° 333° (NNW) 04:26:00 437.485
AIST 2 02 Feb 04:27:52 04:31:28 25° 325° (NW) 04:35:02 435.215
PCSat 02 Feb 04:29:47 04:35:13 84° 121° (ESE) 04:40:42 145.827
MOZHAYETS 4 02 Feb 04:31:41 04:36:16 85° 76° (ENE) 04:40:53
DANDE 02 Feb 04:31:55 04:40:31 83° 100° (E) 04:48:56 436.750
CUSAT 1 02 Feb 04:38:19 04:46:51 83° 282° (WNW) 04:54:54 437.405
PRISM 02 Feb 04:52:16 04:54:59 18° 62° (ENE) 04:57:49 437.425
CUBESAT XI-V 02 Feb 05:01:04 05:04:05 18° 61° (ENE) 05:07:15 437.345
JAS-2 02 Feb 05:06:55 05:12:30 50° 99° (E) 05:18:47 435.910
STRAND 1 02 Feb 05:13:10 05:16:47 20° 59° (ENE) 05:20:33 437.568
Gurwin Techsat 1B 02 Feb 05:19:51 05:23:04 16° 304° (NW) 05:26:06 435.225
